sat.trackr.live / text

‹ back to catalog

CENTISPACE-2 S9

NORAD 68358 · 2026-060J

PAYLOAD ACTIVE UNKNOWN

§ Identity

Operator
Country
PRC
Launch date
2026-03-22
Launch site
YSLA
Launch vehicle
Mass (kg)
RCS (m²)

External: N2YO · Heavens-Above · Gunter

§ Orbital elements

Epoch: 2026-05-25T09:03:53.489952Z

Period
97.77 min
Inclination
54.9791°
Eccentricity
0.0011217
Mean motion
14.72831996 rev/d
Perigee alt
644.2 km
Apogee alt
659.9 km
Semi-major
7,030.2 km
B*
2.6209e-5
RAAN
129.0877°
Arg perigee
89.1373°
Mean anomaly
271.0910°
Rev number
940

§ Raw data

CENTISPACE-2 S91 68358U 26060J   26145.37770243 -.00000037  00000+0  26209-4 0  99982 68358  54.9791 129.0877 0011217  89.1373 271.0910 14.72831996  9407

JSON: /api/v1/satellites/68358 · /tle

For live sub-satellite position, see the globe view (requires WebGL).

§ Visibility from observer

Set your observer location to see the next 7 days of passes ≥ 10°. The values pass through the URL so the page stays shareable.

No JS? Fill the form by hand. The geolocation button needs JavaScript.